Temperature
16 13 13 14 14 15 15 14 12 10 11 10 7 5 5 7 7 6 5 5 4 3 3 3 2 2 1 0 -1 -2 -2 -2 -2 -2 -3 -3 -3 -4 -5 -5 -6 -6 -7 -7
13 13 14 14 14 15 15 14 11 10 10 10 8 5 5 6 6 6 6 5 4 3 3 2 2 2 1 -1 -2 -2 -2 -3 -3 -4 -4 -5 -5 -5 -6 -6 -7 -7 -8 -8
14 14 15 14 12 14 12 13 12 11 9 9 8 7 5 5 6 6 6 5 4 4 3 2 2 1 -0 -2 -2 -3 -3 -4 -4 -4 -5 -5 -5 -6 -6 -7 -8 -8 -9 -9
14 13 14 13 13 13 14 13 13 11 9 8 9 8 5 4 4 5 5 4 4 3 3 2 1 -0 -1 -2 -3 -3 -4 -4 -5 -5 -6 -6 -7 -8 -8 -9 -9 -9 -9 -9
13 13 13 13 13 13 13 13 12 12 11 9 8 7 6 4 4 4 4 4 3 3 2 2 0 -1 -2 -3 -3 -4 -4 -5 -5 -6 -7 -7 -8 -9 -9 -9 -10 -10 -10 -10
13 14 13 13 13 13 13 12 11 9 8 9 9 6 7 3 4 3 3 3 3 2 2 1 -0 -1 -2 -3 -4 -4 -5 -5 -6 -7 -7 -8 -9 -9 -10 -10 -11 -11 -11 -11
14 14 13 13 13 12 11 11 11 11 10 10 10 8 7 4 3 3 3 3 2 2 1 1 -0 -2 -3 -4 -4 -5 -5 -6 -6 -7 -8 -9 -9 -10 -11 -11 -12 -12 -12 -12
14 13 13 12 12 12 12 12 11 12 10 9 10 9 5 4 4 5 4 3 2 2 1 0 -1 -3 -3 -4 -5 -5 -6 -6 -7 -8 -8 -9 -10 -11 -11 -12 -12 -12 -13 -13
13 13 12 12 12 12 12 10 10 9 9 8 8 7 5 4 3 3 2 2 2 1 1 -1 -2 -3 -4 -5 -5 -5 -6 -6 -7 -8 -9 -10 -11 -11 -12 -12 -13 -13 -13 -14
12 12 13 12 12 12 12 10 8 9 10 9 8 8 7 3 3 2 2 2 1 0 -1 -2 -3 -4 -4 -5 -5 -6 -6 -7 -8 -9 -10 -11 -11 -12 -12 -13 -13 -13 -14 -14
11 11 12 11 11 13 12 12 10 8 8 8 7 9 7 4 3 2 2 2 1 -0 -1 -2 -4 -4 -5 -5 -5 -6 -6 -7 -9 -10 -11 -11 -11 -12 -13 -13 -13 -14 -14 -14
9 9 10 11 11 10 11 11 9 9 9 7 6 8 5 3 4 3 2 1 0 -1 -2 -3 -4 -4 -4 -5 -5 -6 -7 -8 -9 -10 -11 -11 -12 -12 -13 -13 -14 -14 -14 -14
9 9 12 13 12 10 10 10 9 8 7 6 6 8 3 3 3 2 1 0 -0 -1 -3 -4 -4 -4 -4 -5 -5 -6 -8 -9 -10 -10 -11 -11 -12 -13 -13 -13 -13 -13 -13 -14
9 9 11 14 13 11 10 10 9 8 7 6 6 7 4 2 1 1 1 0 -1 -2 -3 -3 -3 -4 -4 -5 -6 -7 -8 -9 -10 -10 -11 -11 -12 -13 -13 -13 -13 -13 -13 -13
8 9 9 9 9 9 9 9 8 7 7 7 7 7 6 3 2 1 1 -1 -2 -3 -3 -3 -3 -4 -5 -5 -6 -7 -8 -9 -10 -10 -11 -11 -12 -12 -13 -13 -13 -13 -13 -13
7 8 9 9 9 8 9 8 7 7 7 6 7 7 5 3 2 1 -0 -1 -2 -3 -3 -3 -3 -4 -5 -6 -7 -8 -8 -9 -10 -10 -11 -11 -12 -12 -13 -13 -13 -13 -13 -13
6 8 9 8 7 9 10 10 7 7 6 6 7 6 2 1 0 -0 -0 -1 -2 -2 -2 -3 -4 -4 -5 -6 -7 -8 -8 -9 -9 -10 -11 -11 -12 -13 -13 -13 -13 -13 -13 -13
6 7 6 6 8 12 12 9 8 8 7 6 6 5 3 2 1 1 -0 -1 -1 -2 -2 -3 -4 -5 -5 -6 -7 -8 -8 -8 -9 -10 -10 -11 -12 -12 -13 -13 -13 -13 -13 -13
6 6 6 5 7 8 9 8 8 8 7 7 5 3 1 1 -0 -2 -2 -2 -1 -2 -3 -3 -4 -5 -5 -6 -7 -7 -8 -8 -9 -10 -10 -11 -11 -12 -13 -13 -13 -13 -13 -13
5 4 4 4 8 9 12 8 8 8 7 7 6 2 -1 -2 -1 -1 -1 -2 -2 -2 -3 -4 -4 -5 -5 -6 -7 -7 -7 -8 -9 -9 -10 -11 -11 -12 -12 -13 -13 -13 -13 -13
5 5 4 4 5 8 9 7 8 8 9 8 7 5 2 0 1 2 0 -1 -2 -3 -3 -4 -5 -5 -5 -6 -6 -7 -7 -8 -9 -9 -10 -10 -11 -11 -12 -12 -13 -13 -13 -13
6 4 4 3 4 7 8 5 6 8 9 9 8 7 4 4 2 1 -0 -1 -2 -3 -4 -4 -5 -5 -5 -6 -6 -7 -7 -8 -8 -8 -9 -10 -11 -11 -12 -12 -12 -13 -13 -13
6 7 6 6 10 11 10 11 12 10 9 8 8 6 5 4 2 1 -1 -1 -2 -3 -4 -4 -4 -5 -5 -6 -6 -7 -7 -8 -8 -8 -8 -9 -10 -11 -11 -12 -12 -13 -13 -13
7 7 6 6 8 10 11 11 11 10 9 8 7 6 5 4 2 0 -1 -1 -2 -3 -4 -4 -4 -5 -5 -6 -6 -7 -7 -7 -8 -8 -8 -9 -9 -10 -11 -11 -12 -12 -13 -13
8 5 6 6 7 10 12 13 12 9 8 7 6 5 4 3 2 0 -0 -1 -2 -3 -3 -4 -4 -5 -5 -6 -6 -7 -7 -7 -7 -8 -8 -8 -9 -10 -10 -11 -11 -12 -12 -13
7 7 7 11 13 11 14 14 12 10 8 6 5 4 3 2 2 0 -1 -1 -2 -3 -3 -4 -4 -4 -5 -5 -6 -6 -7 -7 -7 -8 -8 -8 -9 -9 -10 -10 -10 -10 -11 -12
Wind_Speed
7 7 4 2 3 3 3 2 4 5 3 4 6 7 10 7 7 8 7 7 7 6 6 5 3 2 4 7 7 7 8 8 11 8 9 10 10 9 13 18 21 22 23 23
8 5 4 4 3 4 4 4 3 3 2 2 2 6 7 6 7 8 8 8 8 6 6 4 2 3 6 5 6 6 7 7 9 8 8 7 7 7 13 16 18 21 22 22
7 2 4 5 8 7 5 3 2 4 2 1 1 1 5 4 4 5 5 6 7 7 6 3 2 3 3 3 5 8 7 7 10 12 11 11 5 5 6 7 9 19 21 21
5 5 5 6 5 4 0 3 2 3 2 3 2 5 6 7 5 5 5 6 6 6 5 3 2 1 1 3 4 6 7 6 9 12 8 10 10 9 9 8 8 17 20 20
3 4 6 5 3 1 4 3 3 1 2 2 1 3 5 5 7 7 6 6 6 6 5 3 2 1 1 4 5 6 7 6 8 10 8 9 9 8 9 10 10 9 15 18
2 2 2 2 4 2 2 3 2 4 3 3 5 5 6 6 7 7 7 7 7 6 5 3 2 2 4 5 6 6 7 7 7 8 8 9 10 11 13 13 11 10 8 12
3 3 3 3 4 6 7 6 6 6 4 5 3 5 6 4 5 8 9 8 7 6 4 2 4 6 6 7 7 7 8 8 8 8 9 9 9 10 12 13 12 13 11 10
2 4 3 3 2 2 4 4 3 3 5 7 4 6 5 5 4 6 8 8 7 5 3 4 5 5 6 7 8 8 8 8 9 9 9 8 8 8 9 11 12 12 12 11
3 3 1 1 1 1 2 2 5 4 3 5 7 7 5 4 5 6 7 7 6 5 4 4 5 6 6 7 7 8 8 8 9 10 10 9 8 9 11 10 10 9 12 16
2 3 3 1 2 1 2 5 5 2 3 6 8 7 5 10 12 9 8 7 6 4 3 4 5 5 5 6 6 7 8 8 9 10 9 13 10 11 12 11 12 12 14 17
1 2 3 2 3 3 2 2 3 3 4 3 6 8 4 10 11 10 9 8 7 5 3 3 4 4 5 6 7 8 8 9 10 10 10 11 11 11 12 10 11 12 13 16
2 3 3 5 2 0 2 4 5 2 4 4 4 8 1 7 8 9 9 8 7 6 4 2 3 4 6 7 8 9 9 10 10 10 10 11 11 11 12 12 12 15 13 16
1 3 4 7 3 1 3 4 5 4 2 3 4 8 3 4 6 8 9 8 6 5 3 1 3 5 6 7 8 9 9 10 10 10 11 11 11 12 12 13 13 15 13 14
3 2 4 6 7 4 5 5 6 6 4 5 9 10 5 7 8 8 8 8 6 4 2 1 3 5 6 7 8 9 9 10 11 11 10 11 12 12 13 12 12 13 13 13
3 2 5 8 7 5 7 9 8 10 9 10 11 8 8 11 12 11 9 8 6 5 2 2 4 5 7 8 8 8 9 10 10 10 11 12 12 12 12 12 12 12 13 15
2 1 3 6 4 5 7 10 9 9 7 10 12 14 3 7 8 9 9 8 6 5 2 2 4 6 7 7 8 9 9 10 9 10 11 12 12 12 12 12 12 13 14 14
3 1 1 5 8 8 9 7 8 8 9 10 10 8 8 7 10 11 10 8 7 5 3 2 3 5 6 7 7 8 9 9 9 10 10 11 11 12 12 13 13 13 13 13
5 3 2 3 8 5 7 2 6 8 10 11 9 6 11 7 6 5 7 8 8 6 3 1 2 4 5 6 6 7 8 8 9 9 10 11 11 11 12 11 11 10 9 11
2 5 3 1 3 10 10 5 6 6 10 8 9 7 8 10 6 2 5 7 7 6 4 2 1 2 4 6 7 7 8 8 9 10 10 11 10 11 11 11 11 8 8 8
5 5 4 4 2 7 8 3 3 3 8 7 10 11 11 11 5 6 9 8 7 6 4 3 0 2 4 5 6 7 8 8 9 10 10 10 10 10 10 11 9 7 7 9
2 2 4 5 7 10 7 6 6 2 8 5 10 12 15 12 6 8 12 8 7 6 5 4 2 2 3 5 6 7 7 9 9 10 9 10 10 10 9 9 8 8 9 9
9 7 7 5 4 10 7 9 10 11 3 7 9 9 9 7 10 13 11 9 8 7 5 4 2 2 3 4 5 6 7 8 9 9 9 9 9 9 10 9 8 8 8 7
9 10 7 11 12 6 11 11 8 6 8 8 9 8 11 11 10 11 10 9 8 7 5 3 2 2 3 4 4 5 7 8 8 8 8 8 9 8 8 7 7 7 7 5
6 6 6 8 14 10 12 10 6 8 8 8 8 11 12 11 11 11 11 9 8 7 5 4 3 2 3 5 5 5 7 7 7 8 8 8 7 8 7 7 7 6 7 6
9 9 6 9 11 9 9 11 10 8 8 9 8 9 12 14 11 11 11 10 8 7 5 4 3 1 2 4 5 6 7 7 7 7 8 8 8 8 7 8 6 8 5 9
8 11 10 12 11 9 8 7 12 12 11 13 11 10 9 12 13 12 10 9 8 7 6 5 4 2 1 3 4 6 6 6 6 7 7 6 6 7 8 8 8 13 14 16
Wind_Direction
28 61 53 316 262 227 234 149 174 216 210 197 200 185 199 193 156 161 173 169 160 153 137 128 117 99 50 32 17 5 353 346 353 352 353 349 347 343 345 348 347 348 347 345
47 46 297 305 13 54 72 107 150 232 238 229 203 203 202 196 180 178 176 168 162 146 137 147 125 59 41 16 352 355 352 345 350 346 339 334 325 323 334 335 339 343 343 342
105 304 320 61 40 53 53 98 202 222 207 249 199 238 187 216 179 180 155 149 152 146 148 155 84 58 21 346 343 2 350 342 345 344 342 341 324 317 330 330 335 338 337 336
71 5 43 63 50 52 238 215 222 164 147 285 170 294 214 200 203 194 164 143 138 133 141 137 92 84 316 324 341 352 345 338 341 345 346 346 346 336 331 328 323 328 331 331
49 22 41 37 337 316 262 244 227 173 177 313 246 239 277 171 213 211 187 165 152 152 149 134 140 168 356 350 351 345 339 332 336 341 339 336 331 324 324 325 322 321 325 328
70 26 69 316 295 283 311 38 72 62 78 303 217 185 257 203 212 185 173 166 161 161 150 136 112 42 6 356 348 342 338 331 332 335 332 330 328 327 329 330 328 328 323 324
13 351 7 7 1 9 40 52 17 353 354 272 204 197 253 212 200 169 168 172 168 163 153 95 41 16 356 350 344 339 338 334 336 336 333 328 328 325 325 328 329 329 328 327
199 297 320 19 72 335 358 103 121 271 272 293 314 249 260 212 194 153 150 156 158 153 117 66 43 12 351 347 343 341 341 340 339 338 334 326 326 326 325 323 325 325 325 322
156 257 258 259 13 144 82 116 161 157 288 283 283 282 287 213 209 167 155 155 156 136 90 62 32 11 357 348 344 341 343 343 340 337 330 329 326 321 319 317 318 321 322 323
142 269 282 256 356 258 149 147 96 128 298 294 292 283 248 205 213 195 179 172 157 134 94 59 23 2 350 342 339 342 346 341 333 331 328 339 324 319 319 320 322 322 321 321
143 176 300 333 227 232 178 191 150 141 179 223 289 277 233 197 190 186 184 172 162 153 114 53 6 348 341 341 344 346 345 340 334 329 323 325 323 322 322 321 321 320 319 319
75 123 277 267 211 172 237 213 160 189 259 212 245 277 71 159 160 158 159 157 157 142 116 64 351 341 343 347 348 349 344 338 332 328 328 329 326 324 325 323 321 321 319 321
101 118 352 346 339 224 224 210 175 143 147 215 229 268 113 127 136 146 151 157 155 140 128 24 343 343 345 348 348 346 340 334 330 333 334 331 330 330 327 324 323 323 323 324
107 147 190 236 253 255 245 218 181 153 200 239 236 256 206 193 172 161 161 161 156 154 152 358 345 343 345 347 344 340 335 333 338 338 333 333 332 330 327 325 324 326 329 329
110 215 255 262 274 270 251 237 204 198 205 220 250 251 244 204 182 172 167 165 166 172 166 20 359 348 347 346 341 337 332 334 336 334 336 336 333 330 330 330 331 333 338 340
116 197 312 293 317 309 270 252 223 223 222 238 262 271 242 129 129 150 166 170 175 180 151 31 4 354 347 340 335 333 333 332 332 333 334 334 337 336 335 335 340 342 343 340
154 122 7 291 317 338 297 249 195 215 217 209 233 238 147 154 171 175 176 177 179 168 129 44 357 338 329 327 328 332 330 327 332 333 334 337 337 337 337 342 345 343 341 341
147 125 119 311 352 294 252 185 195 225 247 222 233 196 174 159 141 141 159 171 173 158 139 71 331 323 320 325 331 330 328 330 332 335 336 337 338 337 337 341 343 338 336 340
104 140 128 100 299 280 292 236 205 222 276 224 205 164 129 116 100 177 189 171 167 156 151 168 242 288 321 334 335 336 334 334 337 341 340 338 339 339 341 344 341 336 334 338
61 86 121 143 228 257 257 163 130 77 282 230 171 160 154 149 177 220 177 161 153 146 141 149 184 340 349 340 342 346 339 339 343 342 338 337 341 340 341 342 338 336 336 345
115 113 169 189 233 265 251 153 133 192 262 178 164 164 167 185 191 150 147 150 151 146 144 140 106 30 349 339 352 351 340 338 334 333 335 340 341 338 343 340 335 337 343 342
177 175 197 168 215 260 191 146 188 218 148 154 158 158 155 142 124 137 146 150 151 149 150 148 110 35 354 353 1 349 337 324 325 330 336 337 337 342 351 334 333 334 337 333
197 193 188 195 223 246 177 200 210 161 169 172 160 152 139 140 151 155 155 157 157 160 165 160 124 54 4 355 359 342 321 320 326 332 333 330 333 333 336 329 330 335 338 332
243 185 197 245 262 251 223 234 212 187 181 167 153 150 152 153 158 159 160 162 162 164 168 162 126 67 3 342 343 325 315 321 326 329 327 329 332 332 329 337 343 337 335 338
222 179 214 253 270 287 256 223 200 174 151 141 139 151 156 151 157 163 164 167 168 168 168 159 141 112 331 328 331 324 319 323 326 324 324 328 335 327 327 335 333 339 324 346
197 186 196 236 229 209 240 213 174 164 166 160 148 146 152 158 161 161 165 166 165 167 167 163 158 169 296 320 321 317 314 317 322 329 326 319 323 330 333 327 329 342 349 349
Height
1584 1590 1597 1595 1594 1593 1594 1597 1605 1606 1604 1606 1610 1614 1614 1614 1616 1617 1618 1618 1618 1616 1615 1613 1611 1608 1604 1600 1594 1588 1582 1576 1570 1564 1557 1551 1546 1541 1535 1530 1525 1519 1512 1506
1592 1597 1595 1593 1592 1591 1593 1599 1605 1606 1605 1606 1609 1612 1612 1613 1614 1615 1616 1616 1616 1615 1614 1612 1609 1606 1602 1597 1592 1586 1580 1574 1568 1562 1556 1551 1545 1539 1533 1527 1522 1516 1509 1503
1595 1597 1593 1593 1596 1595 1599 1598 1601 1603 1606 1606 1608 1611 1615 1614 1614 1615 1615 1614 1614 1614 1613 1611 1608 1605 1600 1595 1590 1584 1578 1573 1567 1561 1555 1548 1541 1535 1529 1522 1517 1512 1506 1500
1596 1596 1595 1597 1598 1598 1598 1597 1597 1600 1606 1609 1607 1612 1612 1613 1613 1613 1613 1613 1613 1612 1611 1609 1606 1602 1598 1593 1588 1583 1577 1571 1565 1559 1552 1545 1538 1531 1525 1519 1513 1508 1503 1497
1599 1598 1598 1598 1598 1597 1597 1595 1596 1598 1602 1607 1609 1613 1609 1612 1612 1611 1611 1611 1611 1611 1609 1607 1604 1600 1596 1591 1586 1581 1575 1569 1563 1557 1550 1543 1537 1530 1523 1517 1510 1504 1498 1493
1599 1598 1598 1598 1596 1596 1595 1597 1598 1603 1608 1609 1604 1614 1601 1610 1606 1606 1608 1609 1609 1609 1607 1605 1602 1598 1594 1589 1584 1578 1572 1567 1560 1554 1548 1541 1534 1527 1520 1512 1505 1499 1493 1487
1601 1600 1599 1598 1597 1597 1598 1604 1610 1606 1609 1604 1598 1604 1598 1602 1601 1602 1604 1606 1607 1606 1605 1602 1600 1596 1592 1587 1581 1576 1570 1564 1558 1552 1545 1539 1532 1525 1518 1510 1502 1495 1488 1482
1605 1605 1600 1599 1600 1602 1600 1602 1613 1615 1615 1609 1597 1598 1600 1600 1600 1601 1602 1604 1604 1604 1602 1600 1598 1594 1589 1584 1579 1573 1567 1561 1555 1549 1543 1537 1530 1523 1516 1509 1501 1493 1486 1479
1605 1604 1600 1599 1599 1599 1600 1607 1606 1616 1616 1616 1604 1598 1600 1600 1600 1601 1601 1602 1602 1601 1601 1599 1596 1592 1588 1583 1577 1571 1565 1559 1553 1547 1541 1534 1528 1521 1513 1506 1498 1491 1483 1476
1605 1606 1600 1599 1600 1600 1600 1604 1613 1613 1615 1616 1606 1597 1593 1597 1597 1598 1599 1599 1600 1600 1599 1597 1594 1590 1586 1581 1575 1570 1564 1558 1552 1546 1539 1532 1525 1518 1510 1503 1495 1488 1481 1474
1604 1607 1603 1601 1601 1598 1601 1602 1605 1614 1616 1618 1615 1595 1584 1586 1588 1592 1595 1597 1598 1598 1597 1595 1592 1588 1584 1579 1573 1568 1562 1556 1550 1543 1536 1529 1522 1515 1508 1501 1494 1486 1479 1471
1606 1609 1609 1602 1599 1599 1599 1599 1604 1611 1610 1615 1616 1596 1585 1584 1585 1589 1592 1595 1596 1596 1595 1593 1590 1586 1582 1576 1571 1566 1560 1554 1548 1541 1534 1527 1520 1513 1506 1499 1492 1485 1478 1470
1606 1609 1608 1602 1604 1601 1599 1598 1600 1606 1611 1616 1614 1593 1588 1586 1587 1588 1591 1593 1594 1594 1593 1590 1587 1583 1579 1575 1570 1565 1559 1553 1546 1539 1532 1525 1518 1512 1505 1498 1491 1484 1477 1469
1606 1608 1608 1604 1599 1596 1597 1597 1598 1604 1610 1610 1601 1586 1586 1586 1586 1588 1589 1591 1592 1592 1590 1588 1585 1581 1577 1573 1569 1564 1558 1551 1544 1537 1530 1524 1517 1511 1505 1498 1491 1484 1477 1469
1606 1607 1604 1601 1597 1597 1595 1594 1595 1598 1598 1599 1586 1581 1576 1577 1580 1584 1587 1589 1589 1589 1587 1585 1582 1579 1576 1572 1568 1563 1557 1550 1543 1536 1530 1523 1518 1511 1505 1498 1491 1484 1478 1471
1606 1607 1605 1600 1595 1596 1592 1588 1590 1591 1591 1589 1582 1577 1571 1573 1578 1582 1584 1586 1587 1586 1584 1582 1580 1578 1575 1571 1567 1562 1556 1549 1543 1536 1530 1524 1517 1511 1505 1498 1492 1485 1478 1471
1607 1607 1606 1606 1601 1592 1587 1578 1583 1583 1581 1579 1577 1571 1573 1574 1576 1578 1581 1583 1583 1582 1581 1580 1579 1576 1573 1570 1566 1561 1555 1549 1542 1536 1530 1523 1517 1511 1505 1499 1492 1486 1479 1473
1607 1608 1612 1613 1604 1593 1577 1573 1574 1574 1570 1568 1566 1565 1568 1570 1574 1576 1579 1580 1580 1580 1579 1579 1577 1575 1572 1569 1565 1560 1555 1548 1542 1535 1529 1523 1517 1511 1505 1499 1493 1487 1481 1475
1605 1608 1613 1616 1611 1598 1577 1571 1571 1572 1567 1559 1560 1563 1567 1569 1573 1575 1576 1577 1577 1578 1578 1577 1575 1573 1571 1568 1564 1559 1554 1548 1541 1535 1529 1523 1517 1511 1505 1500 1494 1489 1483 1477
1607 1609 1617 1619 1609 1596 1569 1568 1568 1571 1569 1554 1555 1559 1563 1568 1574 1571 1572 1574 1575 1576 1576 1575 1573 1571 1569 1567 1563 1558 1553 1547 1541 1535 1530 1524 1518 1512 1506 1501 1496 1490 1485 1479
1610 1612 1615 1617 1613 1587 1565 1566 1570 1574 1559 1550 1550 1553 1557 1561 1563 1565 1568 1570 1572 1573 1573 1572 1571 1570 1568 1565 1561 1557 1552 1547 1542 1537 1531 1525 1519 1513 1508 1502 1497 1492 1487 1482
1599 1607 1611 1614 1612 1585 1561 1563 1564 1555 1547 1548 1549 1551 1555 1557 1559 1562 1565 1568 1570 1571 1571 1570 1570 1568 1566 1563 1560 1557 1552 1547 1543 1538 1532 1526 1521 1515 1509 1503 1498 1492 1487 1482
1585 1581 1583 1584 1569 1551 1549 1547 1545 1545 1545 1545 1547 1549 1552 1555 1557 1559 1562 1565 1567 1568 1569 1568 1568 1566 1564 1562 1559 1555 1552 1547 1543 1538 1533 1527 1522 1516 1510 1503 1498 1492 1488 1483
1572 1569 1572 1569 1552 1544 1544 1542 1541 1541 1541 1543 1545 1547 1550 1552 1554 1557 1559 1562 1564 1565 1566 1566 1566 1564 1562 1560 1557 1555 1551 1548 1543 1539 1533 1528 1522 1517 1511 1505 1499 1493 1488 1484
1561 1564 1564 1559 1545 1539 1535 1534 1535 1536 1538 1540 1542 1545 1547 1549 1551 1553 1556 1559 1561 1562 1563 1563 1563 1562 1561 1559 1556 1553 1550 1547 1543 1538 1534 1528 1523 1518 1512 1507 1501 1495 1490 1486
1549 1551 1553 1543 1532 1533 1530 1530 1530 1530 1532 1535 1538 1541 1544 1546 1548 1551 1553 1556 1558 1559 1560 1561 1561 1560 1559 1557 1555 1552 1549 1546 1542 1538 1533 1528 1523 1518 1513 1508 1503 1498 1492 1486